User: anonymous   Login
Location: Durham
(54.7770°N, 1.5720°W)
Time: 11:52:48
(UTC+01:00)
Language:

ISS - Orbit

View from above orbital plane
View from above orbital plane
View from above satellite
View from above satellite

Ground track
Ground track

The orbit data is extracted from the following two-line orbital elements,

1 25544U 98067A   17206.61707285  .00016717  00000-0  10270-3 0  9010
2 25544  51.6360 206.7625 0005993  68.1081 292.0708 15.54242695 27720
Epoch (UTC): 25 July 2017 14:48:35
Eccentricity: 0.0005993
inclination: 51.6360°
perigee height: 400 km
apogee height: 408 km
right ascension of ascending node: 206.7625°
argument of perigee: 68.1081°
revolutions per day: 15.54242695
mean anomaly at epoch: 292.0708°
orbit number at epoch: 2772

The dashed part of the orbit path shows where the satellite is in the earth's shadow,  

DLR